Flag for U.S.A. Weather past 2 weeks in Cincinnati, Ohio, U.S.A.

46 °F

Light rain. Fog.

Feels Like: 43 °F
Forecast: 44 / 56 °F
Wind: 6 mph from North

Location: Cincinnati Municipal Airport Lunken Field

Current Time: Nov 28, 2015 at 1:53:08 PM

Latest Report: Nov 28, 2015 at 12:53 PM

Visibility: 3 mi

Pressure: 30.24 "Hg

Humidity: 96%

Dew point: 45 °F

Location of CincinnatiLocation

Historic Weather in Cincinnati — Graph


Cincinnati temperature yesterday

Maximum temperature yesterday: 64 °F (at 2:53 PM)
Minimum temperature yesterday: 48 °F (at 5:53 AM)
Average temperature yesterday: 56 °F

Past Weeks' High & Low Weather Summary

High66 °F (Nov 26, 2:53 PM)100% (Nov 15, 2:53 AM)30.58 "Hg (Nov 15, 2:53 AM)
Low19 °F (Nov 23, 1:53 AM)25% (Nov 13, 3:53 PM)29.73 "Hg (Nov 18, 5:53 PM)
Average45 °F71%30.24 "Hg
* Reported Nov 13 11:53 AM — Nov 28 11:53 AM, Cincinnati, Weather by CustomWeather, © 2015

Note: Actual official high and low records may vary slightly from our data, if they occured in-between our weather recording intervals... More about our weather records


Cincinnati weather history for previous 24 hours

Time TempWeatherWind HumidityBarometerVisibility
11:53 AM
Sat, Nov 28
46 °FLight rain. Overcast.7 mph96%30.25 "Hg8 mi
10:53 AM47 °FLight rain. Fog.8 mph97%30.26 "Hg5 mi
9:53 AM47 °FLight rain. Fog.6 mph100%30.26 "Hg4 mi
8:53 AM48 °FLight rain. Fog.6 mph100%30.24 "Hg5 mi
7:53 AM50 °FLight rain. Fog.9 mph100%30.23 "Hg2 mi
6:53 AM53 °FFog.No wind100%30.22 "Hg4 mi
5:53 AM54 °FFog.No wind100%30.22 "Hg6 mi
4:53 AM54 °FMostly cloudy.3 mph100%30.20 "Hg9 mi
3:53 AM54 °FOvercast.5 mph100%30.22 "Hg10 mi
2:53 AM54 °FFog.No wind100%30.22 "Hg2 mi
1:53 AM54 °FOvercast.No wind100%30.23 "Hg8 mi
12:53 AM54 °FLight rain. Fog.No wind100%30.25 "Hg2 mi
11:53 PM
Fri, Nov 27
54 °FLight rain. Fog.No wind100%30.26 "Hg6 mi
10:53 PM54 °FLight rain. Fog.No wind100%30.27 "Hg6 mi
9:53 PM55 °FLight rain. Overcast.No wind100%30.27 "Hg10 mi
8:53 PM56 °FOvercast.No wind97%30.28 "Hg10 mi
7:53 PM57 °FLight rain. Overcast.No wind90%30.29 "Hg10 mi
6:53 PM58 °FLight rain. Overcast.5 mph87%30.30 "Hg10 mi
5:53 PM60 °FLight rain. Overcast.6 mph75%30.29 "Hg10 mi
4:53 PM62 °FSunny.7 mph70%30.28 "Hg10 mi
3:53 PM63 °FSunny.9 mph68%30.28 "Hg10 mi
2:53 PM64 °FPassing clouds.12 mph65%30.29 "Hg10 mi
1:53 PM63 °FPassing clouds.13 mph65%30.32 "Hg10 mi
Weather by CustomWeather, © 2015

See weather overviewHow to use our weather pages